Location: Clarion
(42.7316°N, 93.7330°W)
Time: 01:23:26
(UTC+00:00)

Cosmos 2341 Rocket - Pass Details

Date: 22 April 2026
Orbit: 968 x 1002 km, 82.9° (Epoch: 20 May)

Event Time Altitude Azimuth Distance (km) Brightness Sun altitude
Rises 01:23:56 0° 175° (S) 3,661 6.7 -4.3°
Reaches altitude 10° 01:26:27 10° 172° (S) 2,722 6.1 -4.7°
Maximum altitude 01:32:36 63° 93° (E) 1,094 4.1 -5.7°
Drops below altitude 10° 01:38:50 10° 14° (NNE) 2,763 6.5 -6.8°
Sets 01:41:24 0° 11° (NNE) 3,721 7.2 -7.2°
